FW6434 Weather Reports


time (UTC)temp
C
wind
direction
speed
KPH
gust
KPH
rain 1hr
cm
rain 24hr
cm
rain mn
cm
humidity
%
barometer
mb
20260504130821 25 188 0.0 6.4 0.00 0.00 0.00 43 1012.7
20260504130804 25 186 0.0 6.4 0.00 0.00 0.00 43 1012.7
20260504130452 25 192 0.0 6.4 0.00 0.00 0.00 43 1012.8
20260504130440 25 198 3.2 6.4 0.00 0.00 0.00 43 1012.8
20260504130344 25 168 1.6 6.4 0.00 0.00 0.00 44 1012.8
20260504130244 25 199 3.2 6.4 0.00 0.00 0.00 43 1012.8
20260504130135 25 194 0.0 6.4 0.00 0.00 0.00 44 1013.0
20260504120254 23 145 1.6 16.1 0.00 0.00 0.00 43 1013.1
20260504120246 23 206 0.0 16.1 0.00 0.00 0.00 42 1013.1
20260504120230 23 196 0.0 16.1 0.00 0.00 0.00 42 1013.3
20260504120215 23 229 3.2 16.1 0.00 0.00 0.00 42 1013.1
20260504120159 23 240 8.0 16.1 0.00 0.00 0.00 42 1013.3
20260504110532 24 236 6.4 22.5 0.00 0.00 0.00 41 1013.7
20260504110421 24 215 0.0 24.1 0.00 0.00 0.00 40 1013.5
20260504110321 24 255 8.0 24.1 0.00 0.00 0.00 40 1013.5
20260504110240 24 195 0.0 24.1 0.00 0.00 0.00 40 1013.5
20260504110215 24 223 8.0 24.1 0.00 0.00 0.00 40 1013.7
20260504100510 25 113 0.0 20.9 0.00 0.00 0.00 39 1014.5
20260504081943 21 206 3.2 20.9 0.00 0.00 0.00 42 1015.0
20260504081842 21 202 12.9 20.9 0.00 0.00 0.00 42 1015.3
20260504081817 21 170 4.8 20.9 0.00 0.00 0.00 42 1015.0
20260504081802 21 203 4.8 20.9 0.00 0.00 0.00 43 1015.0
20260504081514 21 235 3.2 20.9 0.00 0.00 0.00 42 1015.0
20260504081442 21 239 6.4 20.9 0.00 0.00 0.00 43 1015.0
20260504081342 21 230 9.7 16.1 0.00 0.00 0.00 43 1015.3
20260504081243 21 204 11.3 24.1 0.00 0.00 0.00 44 1015.2
20260504081143 21 169 0.0 24.1 0.00 0.00 0.00 43 1014.8
20260504081128 21 196 8.0 24.1 0.00 0.00 0.00 42 1015.0
20260504081114 21 225 4.8 24.1 0.00 0.00 0.00 42 1015.0
20260504081105 21 183 3.2 27.4 0.00 0.00 0.00 42 1015.0
20260504080742 22 210 9.7 27.4 0.00 0.00 0.00 41 1015.2
20260504080656 22 69 6.4 27.4 0.00 0.00 0.00 41 1015.2
20260504080640 21 185 1.6 27.4 0.00 0.00 0.00 42 1015.1
20260504080627 21 201 0.0 27.4 0.00 0.00 0.00 42 1015.1
20260504080618 21 201 0.0 27.4 0.00 0.00 0.00 43 1015.1
20260504080351 21 235 6.4 27.4 0.00 0.00 0.00 43 1015.4
20260504080334 21 247 8.0 27.4 0.00 0.00 0.00 43 1015.1
20260504080319 21 229 3.2 27.4 0.00 0.00 0.00 43 1015.0
20260504080303 21 194 11.3 27.4 0.00 0.00 0.00 42 1015.0
20260504080250 21 217 19.3 27.4 0.00 0.00 0.00 42 1015.0
20260504080241 21 177 1.6 12.9 0.00 0.00 0.00 42 1015.0
20260504070400 21 225 4.8 11.3 0.00 0.00 0.00 43 1015.0
20260504070344 21 163 1.6 14.5 0.00 0.00 0.00 43 1015.0
20260504070110 21 213 0.0 14.5 0.00 0.00 0.00 44 1014.8
20260504050532 16 214 6.4 16.1 0.00 0.00 0.00 51 1015.2
20260504050516 16 230 0.0 16.1 0.00 0.00 0.00 51 1015.1
20260504050239 16 219 4.8 11.3 0.00 0.00 0.00 51 1015.0
20260504050013 16 237 9.7 11.3 0.00 0.00 0.00 51 1015.2
20260504045957 16 194 0.0 6.4 0.00 0.00 0.00 52 1015.2
20260504045513 16 204 1.6 6.4 0.00 0.00 0.00 51 1015.2
20260504045458 16 192 0.0 6.4 0.00 0.00 0.00 50 1015.1
20260504045441 16 203 4.8 6.4 0.00 0.00 0.00 50 1014.9
20260504045130 17 220 3.2 6.4 0.00 0.00 0.00 49 1014.9
20260504045030 17 195 0.0 4.8 0.00 0.00 0.00 48 1015.1
20260504044929 17 228 1.6 6.4 0.00 0.00 0.00 48 1015.1
20260504044907 17 172 0.0 6.4 0.00 0.00 0.00 49 1015.1
20260504044845 16 197 0.0 6.4 0.00 0.00 0.00 49 1014.9
20260504044525 16 198 0.0 6.4 0.00 0.00 0.00 49 1015.0
20260504044425 16 215 1.6 9.7 0.00 0.00 0.00 50 1015.1
20260504044324 16 223 3.2 9.7 0.00 0.00 0.00 50 1015.1
20260504044225 16 201 0.0 9.7 0.00 0.00 0.00 51 1014.9
20260504044124 16 190 0.0 9.7 0.00 0.00 0.00 51 1015.0
20260504044024 15 190 0.0 9.7 0.00 0.00 0.00 52 1015.1
20260504044003 15 185 0.0 11.3 0.00 0.00 0.00 52 1014.9
20260504043954 16 208 6.4 9.7 0.00 0.00 0.00 51 1015.0
20260504043939 15 179 0.0 9.7 0.00 0.00 0.00 52 1015.0
20260504043917 15 208 0.0 9.7 0.00 0.00 0.00 52 1015.0
20260504043652 15 213 3.2 9.7 0.00 0.00 0.00 52 1014.9
20260504043636 15 221 3.2 9.7 0.00 0.00 0.00 52 1014.8
20260504043621 15 204 1.6 6.4 0.00 0.00 0.00 52 1015.0
20260504043605 16 232 6.4 6.4 0.00 0.00 0.00 51 1015.1
20260504043543 16 204 0.0 4.8 0.00 0.00 0.00 51 1014.9
20260504043524 15 195 0.0 4.8 0.00 0.00 0.00 52 1015.0
20260504043509 15 190 0.0 6.4 0.00 0.00 0.00 52 1014.9
20260504043452 15 207 4.8 6.4 0.00 0.00 0.00 52 1015.1
20260504043215 15 185 0.0 11.3 0.00 0.00 0.00 52 1014.9
20260504042424 14 207 0.0 12.9 0.00 0.00 0.00 53 1015.4
20260504042408 14 203 0.0 12.9 0.00 0.00 0.00 54 1014.9
20260504042346 14 176 0.0 12.9 0.00 0.00 0.00 54 1015.1
20260504042024 13 203 0.0 14.5 0.00 0.00 0.00 55 1015.0
20260504041925 13 208 1.6 14.5 0.00 0.00 0.00 55 1014.8
20260504041824 13 227 4.8 14.5 0.00 0.00 0.00 55 1014.9
20260504041725 13 193 0.0 14.5 0.00 0.00 0.00 56 1014.9
20260504041624 13 231 9.7 14.5 0.00 0.00 0.00 56 1014.9
20260504041524 13 213 3.2 14.5 0.00 0.00 0.00 56 1015.0
20260504041423 13 210 3.2 14.5 0.00 0.00 0.00 57 1014.8
20260504041325 13 222 4.8 14.5 0.00 0.00 0.00 57 1014.9
20260504041225 13 240 9.7 14.5 0.00 0.00 0.00 57 1014.9
20260504041126 13 190 0.0 4.8 0.00 0.00 0.00 58 1014.9
20260504041102 12 206 1.6 4.8 0.00 0.00 0.00 58 1015.0
20260504041046 12 205 1.6 4.8 0.00 0.00 0.00 58 1015.0
20260504040725 12 208 3.2 4.8 0.00 0.00 0.00 58 1014.8
20260504040624 12 204 0.0 4.8 0.00 0.00 0.00 58 1014.8
20260504040524 12 200 0.0 4.8 0.00 0.00 0.00 58 1014.8
20260504040508 12 206 1.6 4.8 0.00 0.00 0.00 58 1014.8
20260504040453 12 201 0.0 4.8 0.00 0.00 0.00 58 1015.0
20260504040226 12 204 0.0 4.8 0.00 0.00 0.00 58 1014.6
20260504040124 12 226 3.2 4.8 0.00 0.00 0.00 58 1014.9
20260504040024 12 192 0.0 4.8 0.00 0.00 0.00 58 1014.8
20260504035924 12 201 0.0 4.8 0.00 0.00 0.00 58 1014.6
20260504035824 12 209 0.0 4.8 0.00 0.00 0.00 58 1014.7
20260504035724 12 206 1.6 4.8 0.00 0.00 0.00 58 1014.9
20260504035625 12 211 3.2 4.8 0.00 0.00 0.00 58 1015.0
20260504035523 12 212 1.6 3.2 0.00 0.00 0.00 59 1015.0
20260504035424 12 209 1.6 6.4 0.00 0.00 0.00 58 1014.9
20260504035323 12 206 0.0 6.4 0.00 0.00 0.00 59 1014.8
20260504035224 12 205 0.0 6.4 0.00 0.00 0.00 59 1014.7
20260504035119 12 219 3.2 6.4 0.00 0.00 0.00 59 1014.6
20260504035019 12 218 1.6 6.4 0.00 0.00 0.00 59 1014.7
20260504034918 12 211 1.6 6.4 0.00 0.00 0.00 59 1014.8
20260504034818 12 213 1.6 6.4 0.00 0.00 0.00 59 1014.8
20260504034752 12 219 1.6 6.4 0.00 0.00 0.00 59 1014.8
20260504034738 12 208 1.6 6.4 0.00 0.00 0.00 59 1014.9
20260504034419 12 204 0.0 3.2 0.00 0.00 0.00 61 1014.6
20260504034348 12 206 0.0 1.6 0.00 0.00 0.00 60 1014.8
20260504034326 12 206 0.0 1.6 0.00 0.00 0.00 61 1014.8
20260504034308 12 211 0.0 1.6 0.00 0.00 0.00 60 1014.9
20260504034032 12 197 0.0 1.6 0.00 0.00 0.00 60 1014.8
20260504034015 12 197 0.0 1.6 0.00 0.00 0.00 60 1014.6
20260504033953 12 196 0.0 3.2 0.00 0.00 0.00 61 1014.6
20260504033413 12 197 0.0 3.2 0.00 0.00 0.00 60 1014.8
20260504033313 12 197 0.0 4.8 0.00 0.00 0.00 60 1014.8
20260504033215 12 198 0.0 9.7 0.00 0.00 0.00 60 1014.9
20260504033148 12 199 0.0 9.7 0.00 0.00 0.00 59 1015.0
20260504033132 12 205 0.0 9.7 0.00 0.00 0.00 59 1014.7
20260504032811 12 212 1.6 9.7 0.00 0.00 0.00 58 1014.8
20260504032712 12 205 0.0 9.7 0.00 0.00 0.00 58 1014.7
20260504032611 12 197 0.0 9.7 0.00 0.00 0.00 57 1014.8
20260504032511 12 212 3.2 9.7 0.00 0.00 0.00 57 1014.7
20260504032444 12 214 3.2 9.7 0.00 0.00 0.00 56 1014.8
20260504032427 12 213 4.8 9.7 0.00 0.00 0.00 56 1014.6
20260504032404 12 205 1.6 6.4 0.00 0.00 0.00 57 1014.7
20260504032126 12 207 0.0 6.4 0.00 0.00 0.00 57 1014.8
20260504031808 12 210 0.0 6.4 0.00 0.00 0.00 56 1014.7
20260504031706 13 220 1.6 6.4 0.00 0.00 0.00 56 1014.5
20260504031607 13 208 1.6 6.4 0.00 0.00 0.00 56 1014.5
20260504031533 13 215 1.6 6.4 0.00 0.00 0.00 56 1014.5
20260504031516 13 211 1.6 6.4 0.00 0.00 0.00 56 1014.7
20260504031202 13 209 1.6 6.4 0.00 0.00 0.00 55 1014.6
20260504031150 13 212 1.6 6.4 0.00 0.00 0.00 55 1014.6
20260504031050 13 226 3.2 9.7 0.00 0.00 0.00 55 1014.6
20260504030948 13 209 1.6 9.7 0.00 0.00 0.00 55 1014.8
20260504030929 13 218 4.8 9.7 0.00 0.00 0.00 55 1014.7
20260504030914 13 209 4.8 9.7 0.00 0.00 0.00 55 1014.7
20260504030857 13 230 4.8 9.7 0.00 0.00 0.00 56 1014.6
20260504030543 13 203 3.2 9.7 0.00 0.00 0.00 55 1014.7
20260504030442 12 223 1.6 9.7 0.00 0.00 0.00 56 1014.3
20260504030342 12 222 3.2 9.7 0.00 0.00 0.00 56 1014.7
20260504030242 12 210 6.4 9.7 0.00 0.00 0.00 56 1014.7
20260504030150 12 231 4.8 9.7 0.00 0.00 0.00 56 1014.5
20260504030143 12 234 4.8 9.7 0.00 0.00 0.00 56 1014.5
20260504030041 12 214 1.6 6.4 0.00 0.00 0.00 56 1014.6
20260504025942 12 204 1.6 6.4 0.00 0.00 0.00 56 1014.3
20260504025843 12 203 1.6 6.4 0.00 0.00 0.00 56 1014.6
20260504025744 12 215 1.6 6.4 0.00 0.00 0.00 56 1014.6
20260504025643 12 206 1.6 6.4 0.00 0.00 0.00 57 1014.7
20260504025542 12 200 0.0 6.4 0.00 0.00 0.00 57 1014.2
20260504025442 12 200 0.0 9.7 0.00 0.00 0.00 57 1014.8
20260504025342 12 205 0.0 9.7 0.00 0.00 0.00 57 1014.3
20260504025242 12 203 1.6 9.7 0.00 0.00 0.00 57 1014.5
20260504025150 13 198 0.0 9.7 0.00 0.00 0.00 57 1014.5
20260504025143 13 199 0.0 9.7 0.00 0.00 0.00 57 1014.5
20260504025120 13 199 0.0 9.7 0.00 0.00 0.00 56 1014.3
20260504025105 13 196 0.0 9.7 0.00 0.00 0.00 56 1014.5
20260504024742 13 200 0.0 9.7 0.00 0.00 0.00 56 1014.6
20260504024642 13 199 0.0 9.7 0.00 0.00 0.00 56 1014.3
20260504024542 13 214 1.6 9.7 0.00 0.00 0.00 56 1014.5
20260504024442 13 228 6.4 9.7 0.00 0.00 0.00 55 1014.5
20260504024430 13 211 1.6 9.7 0.00 0.00 0.00 56 1014.3
20260504024421 13 199 0.0 9.7 0.00 0.00 0.00 56 1014.5
20260504024406 13 216 3.2 9.7 0.00 0.00 0.00 56 1014.3
20260504024137 13 214 3.2 9.7 0.00 0.00 0.00 56 1014.8
20260504024038 13 205 3.2 9.7 0.00 0.00 0.00 56 1014.2
20260504023938 13 210 3.2 9.7 0.00 0.00 0.00 55 1014.2
20260504023837 13 192 0.0 9.7 0.00 0.00 0.00 55 1014.2
20260504023737 13 205 0.0 9.7 0.00 0.00 0.00 56 1014.3
20260504023719 13 206 0.0 9.7 0.00 0.00 0.00 56 1014.7
20260504023713 13 209 0.0 9.7 0.00 0.00 0.00 56 1014.3
20260504023657 13 209 1.6 9.7 0.00 0.00 0.00 56 1014.5
20260504023336 13 203 1.6 6.4 0.00 0.00 0.00 56 1014.2
20260504023236 13 198 0.0 6.4 0.00 0.00 0.00 56 1014.6
20260504023221 13 190 1.6 6.4 0.00 0.00 0.00 56 1014.6
20260504023214 13 199 0.0 6.4 0.00 0.00 0.00 57 1014.5
20260504023156 13 169 0.0 6.4 0.00 0.00 0.00 57 1014.7
20260504022835 12 212 3.2 6.4 0.00 0.00 0.00 57 1014.5
20260504022735 12 221 3.2 6.4 0.00 0.00 0.00 58 1014.6
20260504022643 12 198 1.6 3.2 0.00 0.00 0.00 58 1014.6
20260504022634 12 198 1.6 3.2 0.00 0.00 0.00 58 1014.2
20260504022535 12 192 0.0 1.6 0.00 0.00 0.00 58 1014.5
20260504022436 12 196 0.0 1.6 0.00 0.00 0.00 58 1014.3
20260504022336 12 186 0.0 1.6 0.00 0.00 0.00 58 1014.1
20260504022235 12 186 0.0 1.6 0.00 0.00 0.00 59 1014.6
20260504022141 12 186 0.0 1.6 0.00 0.00 0.00 59 1014.6
20260504022120 12 185 0.0 1.6 0.00 0.00 0.00 59 1014.6
20260504022019 12 181 0.0 1.6 0.00 0.00 0.00 59 1014.3
20260504021919 12 186 0.0 1.6 0.00 0.00 0.00 58 1014.6
20260504021807 12 181 0.0 1.6 0.00 0.00 0.00 58 1014.5
20260504021707 12 182 0.0 1.6 0.00 0.00 0.00 58 1014.3
20260504021608 12 182 0.0 1.6 0.00 0.00 0.00 58 1014.6
20260504021507 12 182 0.0 1.6 0.00 0.00 0.00 58 1014.5
20260504021456 13 185 0.0 3.2 0.00 0.00 0.00 57 1014.2
20260504021447 12 181 0.0 1.6 0.00 0.00 0.00 58 1014.3
20260504021432 12 185 0.0 1.6 0.00 0.00 0.00 58 1014.3
20260504021416 12 185 0.0 3.2 0.00 0.00 0.00 58 1014.6
20260504021350 12 182 0.0 3.2 0.00 0.00 0.00 58 1014.3
20260504020853 12 182 0.0 3.2 0.00 0.00 0.00 58 1014.6
20260504020839 13 184 0.0 3.2 0.00 0.00 0.00 58 1014.3
20260504020600 13 186 1.6 3.2 0.00 0.00 0.00 57 1014.2
20260504020447 13 182 0.0 3.2 0.00 0.00 0.00 57 1014.6
20260504020424 13 192 0.0 3.2 0.00 0.00 0.00 57 1014.5
20260504020408 13 188 0.0 3.2 0.00 0.00 0.00 57 1014.3
20260504020126 13 186 0.0 3.2 0.00 0.00 0.00 57 1014.6
20260504020115 13 184 0.0 3.2 0.00 0.00 0.00 57 1014.6
20260504020059 13 185 1.6 3.2 0.00 0.00 0.00 57 1014.6
20260504020042 13 183 1.6 3.2 0.00 0.00 0.00 57 1014.5
20260504020027 13 186 0.0 3.2 0.00 0.00 0.00 57 1014.3
20260504015753 13 186 0.0 3.2 0.00 0.00 0.00 57 1014.6
20260504015745 13 185 0.0 3.2 0.00 0.00 0.00 57 1014.6
20260504015508 13 181 1.6 3.2 0.00 0.00 0.00 57 1014.6
20260504015148 13 182 0.0 3.2 0.00 0.00 0.00 57 1014.5
20260504015107 13 180 1.6 3.2 0.00 0.00 0.00 57 1014.5
20260504015048 13 182 0.0 3.2 0.00 0.00 0.00 57 1014.5
20260504014946 13 181 0.0 3.2 0.00 0.00 0.00 57 1014.5
20260504014903 13 186 0.0 3.2 0.00 0.00 0.00 57 1014.5
20260504014858 13 180 0.0 3.2 0.00 0.00 0.00 57 1014.6
20260504014841 13 181 0.0 3.2 0.00 0.00 0.00 57 1014.6
20260504014825 13 183 0.0 3.2 0.00 0.00 0.00 57 1014.5
20260504014547 13 187 0.0 3.2 0.00 0.00 0.00 57 1014.5
20260504014520 13 173 1.6 3.2 0.00 0.00 0.00 57 1014.5
20260504014504 13 178 0.0 3.2 0.00 0.00 0.00 57 1014.2
20260504014228 13 183 0.0 3.2 0.00 0.00 0.00 57 1014.6
20260504014211 13 186 0.0 3.2 0.00 0.00 0.00 57 1014.3
20260504014203 13 187 1.6 3.2 0.00 0.00 0.00 57 1014.3
20260504013844 13 176 0.0 3.2 0.00 0.00 0.00 57 1014.5
20260504013742 13 182 0.0 3.2 0.00 0.00 0.00 57 1014.5
20260504013643 13 191 0.0 3.2 0.00 0.00 0.00 57 1014.6
20260504013604 13 179 0.0 3.2 0.00 0.00 0.00 57 1014.7
20260504013542 13 177 0.0 3.2 0.00 0.00 0.00 57 1014.7
20260504013517 13 188 0.0 3.2 0.00 0.00 0.00 57 1014.7
20260504013502 13 190 1.6 3.2 0.00 0.00 0.00 57 1014.6
20260504013141 13 186 0.0 3.2 0.00 0.00 0.00 57 1014.5
20260504013109 13 194 1.6 3.2 0.00 0.00 0.00 57 1014.3
20260504013053 13 170 1.6 3.2 0.00 0.00 0.00 57 1014.5
20260504013037 13 181 0.0 3.2 0.00 0.00 0.00 57 1014.5
20260504012801 13 179 0.0 3.2 0.00 0.00 0.00 57 1014.3
20260504012747 13 182 0.0 3.2 0.00 0.00 0.00 57 1014.3
20260504012435 13 180 0.0 3.2 0.00 0.00 0.00 57 1014.5
20260504012336 13 191 0.0 3.2 0.00 0.00 0.00 57 1014.8
20260504012230 13 186 0.0 3.2 0.00 0.00 0.00 57 1014.6
20260504012105 13 179 0.0 3.2 0.00 0.00 0.00 57 1014.5
20260504012050 13 175 0.0 3.2 0.00 0.00 0.00 57 1014.5
20260504012006 13 186 0.0 3.2 0.00 0.00 0.00 57 1014.5
20260504011906 13 186 1.6 3.2 0.00 0.00 0.00 57 1014.3
20260504011844 13 182 0.0 1.6 0.00 0.00 0.00 58 1014.6
20260504011836 13 185 0.0 3.2 0.00 0.00 0.00 57 1014.3
20260504011820 13 175 1.6 3.2 0.00 0.00 0.00 57 1014.7
20260504011753 13 172 0.0 3.2 0.00 0.00 0.00 57 1014.6
20260504011743 13 182 0.0 3.2 0.00 0.00 0.00 57 1014.3
20260504011726 13 175 0.0 1.6 0.00 0.00 0.00 57 1014.5
20260504011230 13 182 0.0 1.6 0.00 0.00 0.00 57 1014.5
20260504011215 13 179 0.0 1.6 0.00 0.00 0.00 57 1014.5
20260504011205 13 186 0.0 1.6 0.00 0.00 0.00 58 1014.7
20260504011150 13 182 0.0 1.6 0.00 0.00 0.00 58 1014.8
20260504011134 13 184 0.0 1.6 0.00 0.00 0.00 58 1014.5
20260504011118 13 182 0.0 1.6 0.00 0.00 0.00 58 1014.7
20260504011100 13 182 0.0 1.6 0.00 0.00 0.00 58 1014.6
20260504010352 13 188 1.6 3.2 0.00 0.00 0.00 58 1014.5
20260504010336 13 182 0.0 3.2 0.00 0.00 0.00 58 1014.5
20260504010108 13 182 0.0 3.2 0.00 0.00 0.00 58 1014.3
20260504005956 13 182 1.6 3.2 0.00 0.00 0.00 58 1014.7
20260504005848 13 181 0.0 3.2 0.00 0.00 0.00 57 1014.5
20260504005748 13 178 0.0 3.2 0.00 0.00 0.00 57 1014.5
20260504005647 13 180 0.0 3.2 0.00 0.00 0.00 57 1014.6
20260504005549 13 182 0.0 3.2 0.00 0.00 0.00 57 1014.7
20260504005447 13 184 0.0 3.2 0.00 0.00 0.00 57 1014.6
20260504005347 13 200 0.0 1.6 0.00 0.00 0.00 57 1014.7
20260504005327 13 189 0.0 1.6 0.00 0.00 0.00 57 1014.8
20260504005311 13 190 0.0 1.6 0.00 0.00 0.00 57 1014.6
20260504005043 13 184 0.0 0.0 0.00 0.00 0.00 57 1014.6
20260504004609 13 184 0.0 4.8 0.00 0.00 0.00 57 1014.7
20260504004554 13 219 1.6 4.8 0.00 0.00 0.00 57 1014.8
20260504004537 13 207 1.6 4.8 0.00 0.00 0.00 57 1014.5
20260504004530 13 188 0.0 4.8 0.00 0.00 0.00 57 1014.5
20260504004515 13 201 1.6 3.2 0.00 0.00 0.00 57 1014.5
20260504004238 13 179 0.0 1.6 0.00 0.00 0.00 57 1014.5
20260504003752 13 181 0.0 1.6 0.00 0.00 0.00 58 1014.7
20260504003735 13 185 0.0 1.6 0.00 0.00 0.00 58 1014.7
20260504003458 13 187 0.0 3.2 0.00 0.00 0.00 58 1014.6
20260504003220 13 180 0.0 3.2 0.00 0.00 0.00 58 1014.8
20260504003213 13 181 0.0 3.2 0.00 0.00 0.00 58 1014.8
20260504002938 13 182 0.0 3.2 0.00 0.00 0.00 58 1014.8
20260504002921 13 181 0.0 3.2 0.00 0.00 0.00 58 1014.8
20260504002645 13 185 0.0 3.2 0.00 0.00 0.00 58 1014.6
20260504002330 13 184 0.0 3.2 0.00 0.00 0.00 58 1014.5
20260504002230 13 177 0.0 1.6 0.00 0.00 0.00 57 1014.8
20260504002129 13 168 0.0 1.6 0.00 0.00 0.00 57 1014.6
20260504002029 13 176 0.0 1.6 0.00 0.00 0.00 57 1015.0
20260504001937 13 180 0.0 1.6 0.00 0.00 0.00 57 1015.0
20260504001929 13 180 0.0 1.6 0.00 0.00 0.00 57 1014.6
20260504001828 13 172 0.0 4.8 0.00 0.00 0.00 57 1014.6
20260504001727 13 175 0.0 4.8 0.00 0.00 0.00 57 1014.7
20260504001628 13 166 0.0 4.8 0.00 0.00 0.00 57 1014.6
20260504001523 13 177 1.6 4.8 0.00 0.00 0.00 57 1014.6
20260504001441 13 178 0.0 4.8 0.00 0.00 0.00 57 1014.9
20260504001434 13 175 0.0 4.8 0.00 0.00 0.00 57 1014.9
20260504001418 13 162 0.0 4.8 0.00 0.00 0.00 57 1014.7
20260504001400 13 191 1.6 4.8 0.00 0.00 0.00 57 1014.9
20260504001123 13 182 0.0 4.8 0.00 0.00 0.00 57 1014.7
20260504001106 13 186 0.0 4.8 0.00 0.00 0.00 57 1014.9
20260504001100 13 188 0.0 4.8 0.00 0.00 0.00 57 1014.9
20260504000833 13 190 0.0 3.2 0.00 0.00 0.00 57 1014.7
20260504000818 13 180 0.0 3.2 0.00 0.00 0.00 57 1014.6
20260504000802 13 180 0.0 3.2 0.00 0.00 0.00 57 1014.6
20260504000536 13 171 0.0 3.2 0.00 0.00 0.00 57 1014.7
20260504000519 13 178 0.0 3.2 0.00 0.00 0.00 57 1014.7
20260504000512 13 180 0.0 3.2 0.00 0.00 0.00 57 1014.7
20260504000455 13 175 0.0 3.2 0.00 0.00 0.00 56 1014.8
20260504000219 13 188 1.6 3.2 0.00 0.00 0.00 56 1014.8
20260504000204 13 179 0.0 3.2 0.00 0.00 0.00 56 1014.8
20260504000148 13 174 0.0 3.2 0.00 0.00 0.00 56 1014.8
20260504000142 13 174 0.0 3.2 0.00 0.00 0.00 56 1014.8
20260504000126 13 151 0.0 1.6 0.00 0.00 0.00 56 1015.0
20260504000110 14 177 0.0 1.6 0.00 0.00 0.00 56 1014.7
20260504000055 14 177 0.0 1.6 0.00 0.00 0.00 56 1014.9
20260504000040 14 175 0.0 1.6 0.00 0.00 0.00 56 1014.8
20260504000024 14 154 1.6 1.6 0.00 0.00 0.00 56 1014.8
20260503235535 14 173 0.0 3.2 0.00 0.00 0.00 55 1014.8
20260503235300 14 178 0.0 6.4 0.00 0.00 0.00 55 1014.7
20260503235244 14 185 0.0 9.7 0.00 0.00 0.00 54 1014.8
20260503235236 14 186 0.0 9.7 0.00 0.00 0.00 54 1014.8
20260503235000 15 197 0.0 9.7 0.00 0.00 0.00 54 1014.6
20260503234944 15 194 0.0 9.7 0.00 0.00 0.00 54 1014.9
20260503234929 15 196 0.0 12.9 0.00 0.00 0.00 54 1015.0
20260503234701 15 199 1.6 12.9 0.00 0.00 0.00 54 1014.8
20260503234425 15 217 1.6 12.9 0.00 0.00 0.00 54 1014.8
20260503234408 15 204 1.6 12.9 0.00 0.00 0.00 54 1014.9
20260503234133 15 222 6.4 12.9 0.00 0.00 0.00 54 1014.9
20260503234126 15 220 6.4 12.9 0.00 0.00 0.00 54 1014.9
20260503233849 15 204 6.4 12.9 0.00 0.00 0.00 54 1014.9
20260503233833 14 200 1.6 4.8 0.00 0.00 0.00 54 1014.9
20260503233600 14 199 1.6 4.8 0.00 0.00 0.00 54 1014.9
20260503233247 15 196 3.2 3.2 0.00 0.00 0.00 54 1015.1
20260503233222 15 227 3.2 3.2 0.00 0.00 0.00 54 1014.9
20260503233206 15 196 0.0 3.2 0.00 0.00 0.00 54 1014.9
20260503232906 15 189 0.0 3.2 0.00 0.00 0.00 54 1014.8
20260503232847 15 188 0.0 3.2 0.00 0.00 0.00 54 1014.8
20260503232747 15 209 0.0 6.4 0.00 0.00 0.00 54 1014.8
20260503232646 15 200 0.0 6.4 0.00 0.00 0.00 54 1014.9
20260503232546 15 196 0.0 9.7 0.00 0.00 0.00 54 1014.9
20260503232444 15 198 1.6 9.7 0.00 0.00 0.00 53 1014.9
20260503232406 15 190 0.0 9.7 0.00 0.00 0.00 53 1014.9
20260503232346 15 185 0.0 9.7 0.00 0.00 0.00 53 1014.9
20260503232246 15 194 0.0 11.3 0.00 0.00 0.00 53 1015.0
20260503232145 15 200 0.0 11.3 0.00 0.00 0.00 53 1014.8
20260503232045 15 221 1.6 11.3 0.00 0.00 0.00 53 1015.1
20260503231946 15 212 1.6 11.3 0.00 0.00 0.00 53 1014.9
20260503231905 15 213 1.6 11.3 0.00 0.00 0.00 53 1015.1
20260503231845 15 206 3.2 11.3 0.00 0.00 0.00 53 1015.1
20260503231746 15 211 4.8 11.3 0.00 0.00 0.00 53 1015.1
20260503231645 15 240 6.4 11.3 0.00 0.00 0.00 53 1015.0
20260503231618 15 230 6.4 11.3 0.00 0.00 0.00 53 1015.0
20260503231602 15 217 3.2 11.3 0.00 0.00 0.00 53 1015.0
20260503231548 15 226 6.4 11.3 0.00 0.00 0.00 53 1015.3
20260503231540 15 243 9.7 11.3 0.00 0.00 0.00 53 1015.3
20260503231521 15 217 4.8 11.3 0.00 0.00 0.00 53 1015.1
20260503231246 15 229 4.8 11.3 0.00 0.00 0.00 53 1015.2
20260503231230 15 201 0.0 11.3 0.00 0.00 0.00 53 1014.9
20260503231216 15 227 1.6 11.3 0.00 0.00 0.00 53 1015.0
20260503230641 15 202 3.2 11.3 0.00 0.00 0.00 53 1015.1
20260503230541 15 239 3.2 11.3 0.00 0.00 0.00 52 1014.8
20260503230442 15 216 0.0 11.3 0.00 0.00 0.00 52 1014.9
20260503230402 15 227 3.2 11.3 0.00 0.00 0.00 52 1015.2
20260503230341 15 222 4.8 11.3 0.00 0.00 0.00 52 1015.2
20260503230242 15 198 0.0 11.3 0.00 0.00 0.00 52 1014.9
20260503230143 15 218 9.7 11.3 0.00 0.00 0.00 52 1015.1
20260503230041 15 229 3.2 11.3 0.00 0.00 0.00 52 1015.1
20260503230025 15 204 3.2 9.7 0.00 0.00 0.00 52 1015.0
20260503230010 15 207 1.6 9.7 0.00 0.00 0.00 52 1015.1
20260503230002 15 233 1.6 11.3 0.00 0.00 0.00 52 1015.1
20260503225641 15 222 1.6 11.3 0.00 0.00 0.00 52 1015.0
20260503225541 15 209 3.2 11.3 0.00 0.00 0.00 52 1015.1
20260503225441 15 229 4.8 11.3 0.00 0.00 0.00 52 1015.2
20260503225400 15 210 3.2 11.3 0.00 0.00 0.00 52 1015.2
20260503225342 15 238 6.4 11.3 0.00 0.00 0.00 52 1015.2
20260503225241 15 223 1.6 11.3 0.00 0.00 0.00 52 1015.2
20260503225141 15 227 1.6 11.3 0.00 0.00 0.00 52 1015.2
20260503225042 15 225 4.8 11.3 0.00 0.00 0.00 52 1015.2
20260503224954 15 205 1.6 11.3 0.00 0.00 0.00 52 1015.1
20260503224949 15 223 1.6 11.3 0.00 0.00 0.00 52 1015.0
20260503224934 15 222 9.7 11.3 0.00 0.00 0.00 52 1015.0
20260503224926 15 217 6.4 6.4 0.00 0.00 0.00 52 1015.0
20260503224909 15 206 0.0 4.8 0.00 0.00 0.00 52 1015.1
20260503224854 15 212 0.0 11.3 0.00 0.00 0.00 52 1015.1
20260503224838 15 218 3.2 11.3 0.00 0.00 0.00 52 1014.9
20260503224339 15 215 1.6 11.3 0.00 0.00 0.00 52 1015.1
20260503224241 15 192 0.0 11.3 0.00 0.00 0.00 52 1015.2
20260503224141 15 201 0.0 11.3 0.00 0.00 0.00 52 1015.0
20260503224041 15 173 0.0 11.3 0.00 0.00 0.00 52 1015.1
20260503223941 15 203 0.0 11.3 0.00 0.00 0.00 52 1015.1
20260503223900 15 255 1.6 11.3 0.00 0.00 0.00 52 1015.1
20260503223841 15 198 0.0 11.3 0.00 0.00 0.00 52 1015.1
20260503223740 15 217 3.2 11.3 0.00 0.00 0.00 52 1015.0
20260503223640 15 178 0.0 4.8 0.00 0.00 0.00 52 1015.0
20260503223623 15 185 0.0 4.8 0.00 0.00 0.00 52 1015.1
20260503223607 15 195 0.0 4.8 0.00 0.00 0.00 52 1015.0
20260503223553 15 216 1.6 4.8 0.00 0.00 0.00 52 1015.4
20260503223240 15 188 1.6 4.8 0.00 0.00 0.00 52 1015.2
20260503223140 15 207 1.6 12.9 0.00 0.00 0.00 52 1015.2
20260503223040 15 225 0.0 12.9 0.00 0.00 0.00 53 1015.2
20260503222941 15 194 0.0 12.9 0.00 0.00 0.00 52 1015.1
20260503222859 15 214 1.6 12.9 0.00 0.00 0.00 52 1015.1
20260503222839 15 107 1.6 12.9 0.00 0.00 0.00 52 1015.1
20260503222741 15 270 1.6 12.9 0.00 0.00 0.00 53 1014.8
20260503222654 15 190 1.6 12.9 0.00 0.00 0.00 53 1015.2
20260503222638 15 168 0.0 12.9 0.00 0.00 0.00 53 1014.9
20260503222622 15 191 0.0 12.9 0.00 0.00 0.00 53 1015.2
20260503222608 15 163 0.0 12.9 0.00 0.00 0.00 53 1015.3
20260503222600 15 171 0.0 12.9 0.00 0.00 0.00 53 1015.3
20260503222322 14 211 1.6 9.7 0.00 0.00 0.00 53 1015.3
20260503222305 14 199 0.0 9.7 0.00 0.00 0.00 54 1015.1
20260503222249 14 192 0.0 9.7 0.00 0.00 0.00 54 1015.3
20260503222235 14 189 0.0 9.7 0.00 0.00 0.00 55 1015.3
20260503222007 14 203 0.0 9.7 0.00 0.00 0.00 55 1015.0
20260503221952 14 203 0.0 3.2 0.00 0.00 0.00 55 1015.1
20260503221717 14 182 0.0 3.2 0.00 0.00 0.00 56 1015.4
20260503221702 14 197 0.0 3.2 0.00 0.00 0.00 56 1015.4
20260503221655 14 191 0.0 3.2 0.00 0.00 0.00 55 1015.0
20260503221417 14 196 0.0 1.6 0.00 0.00 0.00 55 1015.3
20260503220854 15 196 0.0 3.2 0.00 0.00 0.00 55 1015.1
20260503220834 15 194 0.0 3.2 0.00 0.00 0.00 55 1015.2
20260503220811 15 192 0.0 3.2 0.00 0.00 0.00 55 1015.1
20260503220755 15 192 0.0 3.2 0.00 0.00 0.00 55 1015.2
20260503220514 15 195 0.0 3.2 0.00 0.00 0.00 54 1015.2
20260503220459 15 193 0.0 4.8 0.00 0.00 0.00 54 1015.2
20260503220452 15 193 0.0 6.4 0.00 0.00 0.00 54 1015.1
20260503220129 15 193 0.0 6.4 0.00 0.00 0.00 54 1015.4
20260503220029 15 217 0.0 6.4 0.00 0.00 0.00 53 1015.4
20260503215929 15 210 1.6 6.4 0.00 0.00 0.00 53 1015.3
20260503215850 15 188 0.0 6.4 0.00 0.00 0.00 53 1015.3
20260503215830 15 192 0.0 6.4 0.00 0.00 0.00 53 1015.2
20260503215806 15 210 0.0 3.2 0.00 0.00 0.00 53 1015.4
20260503215756 15 192 0.0 6.4 0.00 0.00 0.00 53 1015.1
20260503215741 15 187 0.0 6.4 0.00 0.00 0.00 53 1015.3
20260503215725 15 187 0.0 6.4 0.00 0.00 0.00 53 1015.2
20260503215459 15 178 0.0 6.4 0.00 0.00 0.00 53 1015.2
20260503215445 15 182 0.0 4.8 0.00 0.00 0.00 53 1015.2
20260503215437 15 260 0.0 4.8 0.00 0.00 0.00 53 1015.3
20260503215418 15 167 0.0 3.2 0.00 0.00 0.00 53 1015.3
20260503215403 15 185 0.0 3.2 0.00 0.00 0.00 53 1015.0
20260503215347 15 198 0.0 3.2 0.00 0.00 0.00 53 1015.0
20260503215330 15 199 0.0 3.2 0.00 0.00 0.00 53 1015.4
20260503215104 15 198 0.0 3.2 0.00 0.00 0.00 53 1015.3
20260503215048 15 190 0.0 3.2 0.00 0.00 0.00 53 1015.2
20260503214810 15 199 0.0 6.4 0.00 0.00 0.00 53 1015.3
20260503214536 15 194 0.0 6.4 0.00 0.00 0.00 53 1015.1
20260503214223 15 194 0.0 6.4 0.00 0.00 0.00 53 1015.4
20260503214122 15 192 0.0 6.4 0.00 0.00 0.00 53 1015.4
20260503214022 15 194 0.0 6.4 0.00 0.00 0.00 53 1015.3
20260503213922 15 194 0.0 6.4 0.00 0.00 0.00 53 1015.2
20260503213822 15 191 0.0 6.4 0.00 0.00 0.00 53 1015.2
20260503213721 15 191 0.0 6.4 0.00 0.00 0.00 52 1015.2
20260503213623 16 192 0.0 6.4 0.00 0.00 0.00 52 1015.3
20260503213556 16 196 0.0 6.4 0.00 0.00 0.00 52 1015.2
20260503213540 16 184 0.0 6.4 0.00 0.00 0.00 52 1015.3
20260503213526 16 222 0.0 6.4 0.00 0.00 0.00 52 1015.3
20260503213518 16 200 0.0 6.4 0.00 0.00 0.00 52 1015.5
20260503213239 16 181 0.0 6.4 0.00 0.00 0.00 52 1015.1
20260503213223 16 213 3.2 6.4 0.00 0.00 0.00 52 1015.2
20260503213207 16 160 0.0 3.2 0.00 0.00 0.00 52 1015.4
20260503213153 16 180 0.0 3.2 0.00 0.00 0.00 52 1015.4
20260503212618 16 152 1.6 3.2 0.00 0.00 0.00 52 1015.2
20260503212515 16 188 0.0 3.2 0.00 0.00 0.00 52 1015.2
20260503212415 16 195 0.0 3.2 0.00 0.00 0.00 52 1015.2
20260503212336 16 199 0.0 3.2 0.00 0.00 0.00 52 1015.2
20260503212317 16 186 0.0 3.2 0.00 0.00 0.00 52 1015.2
20260503212215 16 181 0.0 3.2 0.00 0.00 0.00 52 1015.3
20260503212146 16 186 0.0 3.2 0.00 0.00 0.00 52 1015.3
20260503212129 16 185 0.0 3.2 0.00 0.00 0.00 52 1015.4
20260503211829 16 176 0.0 3.2 0.00 0.00 0.00 52 1015.3
20260503211809 16 230 1.6 3.2 0.00 0.00 0.00 52 1015.3
20260503211709 16 194 0.0 3.2 0.00 0.00 0.00 52 1015.2
20260503211609 16 182 0.0 1.6 0.00 0.00 0.00 52 1015.4
20260503211510 16 193 0.0 4.8 0.00 0.00 0.00 52 1015.2
20260503211456 16 198 0.0 4.8 0.00 0.00 0.00 52 1015.3
20260503211442 16 193 0.0 4.8 0.00 0.00 0.00 52 1015.3
20260503211434 16 196 0.0 4.8 0.00 0.00 0.00 52 1015.3
20260503211109 16 188 0.0 4.8 0.00 0.00 0.00 52 1015.1
20260503211010 16 188 0.0 4.8 0.00 0.00 0.00 52 1015.3
20260503210909 16 190 0.0 6.4 0.00 0.00 0.00 52 1015.3
20260503210829 16 190 0.0 6.4 0.00 0.00 0.00 53 1015.2
20260503210810 16 190 0.0 6.4 0.00 0.00 0.00 52 1015.2
20260503210710 16 193 0.0 6.4 0.00 0.00 0.00 52 1015.3
20260503210610 16 199 0.0 6.4 0.00 0.00 0.00 52 1015.3
20260503210509 16 197 0.0 6.4 0.00 0.00 0.00 52 1015.3
20260503210408 16 231 1.6 6.4 0.00 0.00 0.00 51 1015.3
20260503210325 16 212 0.0 6.4 0.00 0.00 0.00 51 1015.3
20260503210305 16 196 1.6 6.4 0.00 0.00 0.00 51 1015.3
20260503210205 16 195 0.0 6.4 0.00 0.00 0.00 51 1015.4
20260503210105 16 187 0.0 6.4 0.00 0.00 0.00 51 1015.3
20260503210006 16 245 1.6 6.4 0.00 0.00 0.00 51 1015.3
20260503205904 16 209 0.0 3.2 0.00 0.00 0.00 51 1015.4
20260503205824 16 175 0.0 3.2 0.00 0.00 0.00 51 1015.5
20260503205804 16 204 0.0 3.2 0.00 0.00 0.00 51 1015.5
20260503205704 16 187 0.0 3.2 0.00 0.00 0.00 52 1015.5
20260503205639 16 214 0.0 3.2 0.00 0.00 0.00 52 1015.2
20260503205623 16 199 0.0 3.2 0.00 0.00 0.00 52 1015.5
20260503205324 16 201 0.0 6.4 0.00 0.00 0.00 52 1015.4
20260503205304 16 201 0.0 6.4 0.00 0.00 0.00 52 1015.4
20260503205204 16 192 0.0 6.4 0.00 0.00 0.00 52 1015.3
20260503205103 16 198 0.0 6.4 0.00 0.00 0.00 52 1015.1
20260503205002 16 203 0.0 6.4 0.00 0.00 0.00 52 1015.3
20260503204918 17 192 0.0 3.2 0.00 0.00 0.00 52 1015.1
20260503204913 16 171 0.0 6.4 0.00 0.00 0.00 52 1015.4
20260503204859 16 169 0.0 6.4 0.00 0.00 0.00 52 1015.4
20260503204851 16 204 0.0 6.4 0.00 0.00 0.00 52 1015.3
20260503204835 16 209 1.6 6.4 0.00 0.00 0.00 52 1015.4
20260503204820 16 196 0.0 6.4 0.00 0.00 0.00 52 1015.4
20260503204543 17 186 0.0 3.2 0.00 0.00 0.00 52 1015.3
20260503204303 17 204 0.0 3.2 0.00 0.00 0.00 52 1015.1
20260503204237 17 201 0.0 3.2 0.00 0.00 0.00 52 1015.4
20260503204221 17 193 0.0 3.2 0.00 0.00 0.00 52 1015.4
20260503204206 17 189 0.0 6.4 0.00 0.00 0.00 52 1015.5
20260503204151 17 189 0.0 6.4 0.00 0.00 0.00 52 1015.4
20260503204136 17 184 0.0 6.4 0.00 0.00 0.00 52 1015.4
20260503203603 17 203 0.0 6.4 0.00 0.00 0.00 51 1015.4
20260503203503 17 207 1.6 6.4 0.00 0.00 0.00 52 1015.4
20260503203404 17 183 0.0 6.4 0.00 0.00 0.00 52 1015.4
20260503203323 17 201 0.0 6.4 0.00 0.00 0.00 51 1015.5
20260503203304 17 181 0.0 6.4 0.00 0.00 0.00 51 1015.5
20260503203203 17 188 0.0 6.4 0.00 0.00 0.00 51 1015.3
20260503203120 17 196 0.0 6.4 0.00 0.00 0.00 51 1015.4
20260503203115 17 213 3.2 6.4 0.00 0.00 0.00 51 1015.4
20260503203059 17 186 0.0 6.4 0.00 0.00 0.00 52 1015.5
20260503203042 17 208 0.0 6.4 0.00 0.00 0.00 51 1015.3
20260503202804 17 204 0.0 6.4 0.00 0.00 0.00 52 1015.4
20260503202703 17 184 0.0 4.8 0.00 0.00 0.00 52 1015.2
20260503202603 17 189 0.0 4.8 0.00 0.00 0.00 51 1015.3
20260503202504 17 194 0.0 4.8 0.00 0.00 0.00 52 1015.5
20260503202403 17 184 0.0 4.8 0.00 0.00 0.00 52 1015.2
20260503202323 17 188 1.6 4.8 0.00 0.00 0.00 52 1015.1
20260503202304 17 181 0.0 4.8 0.00 0.00 0.00 52 1015.1
20260503202203 17 202 0.0 4.8 0.00 0.00 0.00 52 1015.2
20260503202140 17 184 0.0 4.8 0.00 0.00 0.00 52 1015.4
20260503202123 17 205 3.2 4.8 0.00 0.00 0.00 52 1015.4
20260503201825 17 184 0.0 4.8 0.00 0.00 0.00 52 1015.3
20260503201805 17 176 0.0 4.8 0.00 0.00 0.00 52 1015.3
20260503201753 17 199 1.6 6.4 0.00 0.00 0.00 53 1015.3
20260503201749 17 210 0.0 4.8 0.00 0.00 0.00 53 1015.4
20260503201740 17 192 0.0 4.8 0.00 0.00 0.00 52 1015.4
20260503201724 17 226 1.6 4.8 0.00 0.00 0.00 53 1015.3
20260503201708 17 196 0.0 3.2 0.00 0.00 0.00 53 1015.4
20260503201652 17 199 0.0 6.4 0.00 0.00 0.00 52 1015.3
20260503201638 17 191 0.0 6.4 0.00 0.00 0.00 52 1015.2
20260503201629 17 200 0.0 6.4 0.00 0.00 0.00 52 1015.2
20260503201611 17 186 0.0 6.4 0.00 0.00 0.00 52 1015.3
20260503201335 17 196 1.6 6.4 0.00 0.00 0.00 52 1015.2
20260503201318 17 175 0.0 6.4 0.00 0.00 0.00 53 1015.3
20260503201052 17 191 0.0 6.4 0.00 0.00 0.00 53 1015.3
20260503200811 17 191 0.0 6.4 0.00 0.00 0.00 53 1015.3
20260503200755 17 195 0.0 6.4 0.00 0.00 0.00 53 1015.4
20260503200740 17 225 0.0 4.8 0.00 0.00 0.00 53 1015.3
20260503200203 17 189 0.0 4.8 0.00 0.00 0.00 53 1015.4
20260503200104 17 198 0.0 4.8 0.00 0.00 0.00 53 1015.1
20260503195959 17 188 0.0 4.8 0.00 0.00 0.00 53 1015.3
20260503195900 17 211 3.2 4.8 0.00 0.00 0.00 53 1015.2
20260503195819 17 183 0.0 4.8 0.00 0.00 0.00 53 1015.2
20260503195759 17 198 0.0 4.8 0.00 0.00 0.00 53 1015.2
20260503195700 17 199 0.0 4.8 0.00 0.00 0.00 53 1015.2
20260503195558 17 182 0.0 4.8 0.00 0.00 0.00 53 1015.2
20260503195539 17 193 0.0 4.8 0.00 0.00 0.00 52 1015.1
20260503195531 17 195 0.0 4.8 0.00 0.00 0.00 53 1015.2
20260503195516 17 196 0.0 4.8 0.00 0.00 0.00 53 1015.4
20260503195502 17 222 1.6 4.8 0.00 0.00 0.00 53 1015.3
20260503195454 17 230 1.6 4.8 0.00 0.00 0.00 53 1015.3
20260503195435 17 195 0.0 4.8 0.00 0.00 0.00 53 1015.0
20260503195419 17 213 0.0 1.6 0.00 0.00 0.00 53 1015.2
20260503195403 18 200 1.6 1.6 0.00 0.00 0.00 52 1015.1
20260503195348 18 194 0.0 3.2 0.00 0.00 0.00 52 1015.3
20260503195334 18 182 0.0 3.2 0.00 0.00 0.00 52 1015.3
20260503195105 18 217 0.0 4.8 0.00 0.00 0.00 52 1015.0
20260503195049 18 192 0.0 4.8 0.00 0.00 0.00 52 1015.2
20260503194814 18 196 0.0 4.8 0.00 0.00 0.00 52 1015.2
20260503194759 18 205 0.0 4.8 0.00 0.00 0.00 52 1015.3
20260503194530 18 187 0.0 4.8 0.00 0.00 0.00 52 1015.5
20260503194036 17 205 0.0 4.8 0.00 0.00 0.00 52 1015.0
20260503193757 17 191 0.0 4.8 0.00 0.00 0.00 53 1015.1
20260503193652 18 190 0.0 4.8 0.00 0.00 0.00 53 1015.1
20260503193551 18 188 0.0 4.8 0.00 0.00 0.00 53 1015.2
20260503193451 18 188 0.0 4.8 0.00 0.00 0.00 53 1015.1
20260503193349 18 199 0.0 4.8 0.00 0.00 0.00 53 1015.2
20260503193307 18 194 0.0 4.8 0.00 0.00 0.00 53 1015.4
20260503193247 18 194 0.0 4.8 0.00 0.00 0.00 53 1015.4
20260503193145 18 186 0.0 4.8 0.00 0.00 0.00 53 1015.0
20260503193045 18 206 0.0 4.8 0.00 0.00 0.00 53 1015.1
20260503192945 17 196 0.0 4.8 0.00 0.00 0.00 53 1015.0
20260503192843 17 195 0.0 4.8 0.00 0.00 0.00 53 1015.2
20260503192800 17 204 0.0 4.8 0.00 0.00 0.00 53 1015.0
20260503192740 17 200 0.0 4.8 0.00 0.00 0.00 53 1015.0
20260503192640 17 188 0.0 4.8 0.00 0.00 0.00 53 1015.0
20260503192540 17 192 0.0 4.8 0.00 0.00 0.00 53 1015.3
20260503192441 17 194 0.0 4.8 0.00 0.00 0.00 53 1015.2
20260503192328 17 237 1.6 4.8 0.00 0.00 0.00 53 1015.2
20260503192300 17 191 0.0 1.6 0.00 0.00 0.00 54 1015.2
20260503192228 17 192 0.0 1.6 0.00 0.00 0.00 53 1015.1
20260503192129 17 223 0.0 1.6 0.00 0.00 0.00 53 1015.1
20260503192027 17 189 0.0 1.6 0.00 0.00 0.00 54 1015.0
20260503191928 17 192 0.0 1.6 0.00 0.00 0.00 53 1015.1
20260503191823 17 196 0.0 1.6 0.00 0.00 0.00 53 1015.2
20260503191755 17 202 0.0 1.6 0.00 0.00 0.00 53 1015.2
20260503191723 17 199 0.0 1.6 0.00 0.00 0.00 53 1015.1
20260503191700 17 194 0.0 0.0 0.00 0.00 0.00 53 1014.9
20260503191645 17 198 0.0 0.0 0.00 0.00 0.00 53 1015.1
20260503191325 17 196 0.0 0.0 0.00 0.00 0.00 53 1015.2
20260503191253 17 189 0.0 0.0 0.00 0.00 0.00 53 1015.2
20260503191221 17 185 0.0 0.0 0.00 0.00 0.00 53 1015.3
20260503191121 17 192 0.0 0.0 0.00 0.00 0.00 53 1015.1
20260503191054 17 187 0.0 0.0 0.00 0.00 0.00 53 1015.3
20260503191037 17 192 0.0 1.6 0.00 0.00 0.00 53 1015.1
20260503190749 17 194 0.0 1.6 0.00 0.00 0.00 53 1015.1
20260503190716 17 194 0.0 1.6 0.00 0.00 0.00 53 1015.1
20260503190617 17 194 0.0 1.6 0.00 0.00 0.00 53 1015.1
20260503190516 18 194 0.0 1.6 0.00 0.00 0.00 53 1015.1
20260503190417 18 194 0.0 1.6 0.00 0.00 0.00 53 1015.0
20260503190316 18 194 0.0 1.6 0.00 0.00 0.00 53 1015.0
20260503190249 18 192 0.0 1.6 0.00 0.00 0.00 53 1015.0
20260503190215 18 196 0.0 1.6 0.00 0.00 0.00 53 1015.2
20260503190116 18 195 0.0 1.6 0.00 0.00 0.00 52 1015.1
20260503190052 18 196 0.0 1.6 0.00 0.00 0.00 52 1014.9
20260503190036 18 191 0.0 0.0 0.00 0.00 0.00 52 1015.2
20260503185745 18 191 0.0 0.0 0.00 0.00 0.00 52 1015.1
20260503185711 18 190 0.0 0.0 0.00 0.00 0.00 52 1015.0
20260503185611 18 191 0.0 0.0 0.00 0.00 0.00 52 1015.2
20260503185511 18 191 0.0 0.0 0.00 0.00 0.00 52 1015.0
20260503185410 18 191 0.0 0.0 0.00 0.00 0.00 52 1014.9
20260503185313 18 192 0.0 0.0 0.00 0.00 0.00 51 1015.2
20260503185236 18 192 0.0 0.0 0.00 0.00 0.00 51 1015.2
20260503185211 18 192 0.0 0.0 0.00 0.00 0.00 51 1015.0
20260503185111 18 195 0.0 0.0 0.00 0.00 0.00 51 1015.0
20260503185008 18 167 0.0 0.0 0.00 0.00 0.00 51 1015.1
20260503184940 19 188 0.0 0.0 0.00 0.00 0.00 49 1014.8
20260503184933 18 196 0.0 1.6 0.00 0.00 0.00 51 1015.0
20260503184902 18 196 0.0 1.6 0.00 0.00 0.00 51 1015.0
20260503184854 18 223 0.0 1.6 0.00 0.00 0.00 50 1015.1
20260503184836 18 194 0.0 1.6 0.00 0.00 0.00 50 1015.0
20260503184820 18 190 0.0 1.6 0.00 0.00 0.00 51 1015.1
20260503184804 18 191 0.0 1.6 0.00 0.00 0.00 50 1015.1
20260503184531 19 190 0.0 1.6 0.00 0.00 0.00 50 1015.0
20260503184300 19 190 0.0 1.6 0.00 0.00 0.00 50 1014.9
20260503184243 19 194 0.0 3.2 0.00 0.00 0.00 49 1014.9
20260503184007 19 190 0.0 3.2 0.00 0.00 0.00 49 1014.9
20260503183954 19 193 0.0 3.2 0.00 0.00 0.00 49 1014.9
20260503183724 19 190 0.0 3.2 0.00 0.00 0.00 49 1015.0
20260503183707 19 192 0.0 3.2 0.00 0.00 0.00 49 1015.0
20260503183651 19 191 0.0 3.2 0.00 0.00 0.00 49 1014.9
20260503183635 19 186 0.0 3.2 0.00 0.00 0.00 49 1014.6
20260503183621 19 186 0.0 3.2 0.00 0.00 0.00 49 1014.9
20260503183612 19 188 0.0 3.2 0.00 0.00 0.00 49 1014.9
20260503183554 19 203 0.0 1.6 0.00 0.00 0.00 49 1015.0
20260503183537 19 191 0.0 1.6 0.00 0.00 0.00 49 1015.0
20260503183522 19 192 0.0 1.6 0.00 0.00 0.00 49 1015.0
20260503183507 19 178 0.0 1.6 0.00 0.00 0.00 49 1014.8
20260503183454 19 199 0.0 1.6 0.00 0.00 0.00 49 1014.8
20260503183227 19 196 0.0 0.0 0.00 0.00 0.00 49 1014.8
20260503182951 19 191 0.0 0.0 0.00 0.00 0.00 49 1015.0
20260503181936 20 192 0.0 0.0 0.00 0.00 0.00 48 1014.8
20260503181835 20 190 0.0 0.0 0.00 0.00 0.00 48 1015.0
20260503181720 20 190 0.0 0.0 0.00 0.00 0.00 48 1014.8
20260503181635 20 188 0.0 0.0 0.00 0.00 0.00 48 1015.0
20260503181604 20 191 0.0 0.0 0.00 0.00 0.00 48 1014.8
20260503181556 20 190 0.0 0.0 0.00 0.00 0.00 48 1014.8
20260503181540 20 201 0.0 0.0 0.00 0.00 0.00 48 1014.9
20260503181524 20 187 0.0 0.0 0.00 0.00 0.00 48 1014.7
20260503181510 20 191 0.0 0.0 0.00 0.00 0.00 48 1014.8
20260503181243 20 194 0.0 0.0 0.00 0.00 0.00 48 1014.6
20260503181224 20 195 0.0 0.0 0.00 0.00 0.00 48 1014.7
20260503180950 20 188 0.0 0.0 0.00 0.00 0.00 48 1014.7
20260503180924 20 194 0.0 0.0 0.00 0.00 0.00 48 1014.6
20260503180914 20 194 0.0 0.0 0.00 0.00 0.00 47 1014.8
20260503180639 20 194 0.0 0.0 0.00 0.00 0.00 47 1014.8
20260503180623 20 193 0.0 0.0 0.00 0.00 0.00 47 1014.2
20260503180351 20 190 0.0 0.0 0.00 0.00 0.00 47 1014.9
20260503180339 20 190 0.0 0.0 0.00 0.00 0.00 47 1014.7
20260503180320 20 190 0.0 0.0 0.00 0.00 0.00 47 1014.6
20260503180305 20 190 0.0 0.0 0.00 0.00 0.00 47 1014.8
20260503180016 20 189 0.0 0.0 0.00 0.00 0.00 47 1014.6
20260503175747 20 190 0.0 0.0 0.00 0.00 0.00 47 1014.6
20260503175730 20 189 0.0 0.0 0.00 0.00 0.00 47 1014.8
20260503175714 20 189 0.0 0.0 0.00 0.00 0.00 47 1014.7
20260503175448 20 190 0.0 0.0 0.00 0.00 0.00 46 1014.7
20260503174944 21 187 0.0 3.2 0.00 0.00 0.00 46 1014.6
20260503174927 21 187 0.0 3.2 0.00 0.00 0.00 46 1014.7
20260503174657 21 187 0.0 3.2 0.00 0.00 0.00 46 1014.5
20260503174557 21 188 0.0 3.2 0.00 0.00 0.00 46 1014.7
20260503174452 21 194 0.0 3.2 0.00 0.00 0.00 46 1014.5
20260503174348 21 194 0.0 3.2 0.00 0.00 0.00 46 1014.7
20260503174247 21 203 0.0 3.2 0.00 0.00 0.00 45 1014.6
20260503174145 21 190 0.0 3.2 0.00 0.00 0.00 46 1014.5
20260503174045 21 189 0.0 3.2 0.00 0.00 0.00 45 1014.7
20260503174006 21 186 0.0 1.6 0.00 0.00 0.00 46 1014.3
20260503173950 21 205 0.0 3.2 0.00 0.00 0.00 45 1014.7
20260503173934 21 191 0.0 3.2 0.00 0.00 0.00 45 1014.3
20260503173919 21 193 0.0 3.2 0.00 0.00 0.00 45 1014.3
20260503173652 21 194 0.0 3.2 0.00 0.00 0.00 46 1014.3
20260503173421 21 192 0.0 3.2 0.00 0.00 0.00 45 1014.7
20260503173412 21 194 0.0 3.2 0.00 0.00 0.00 46 1014.6
20260503173355 21 195 0.0 3.2 0.00 0.00 0.00 45 1014.7
20260503173115 21 188 0.0 3.2 0.00 0.00 0.00 45 1014.5
20260503173018 21 192 0.0 3.2 0.00 0.00 0.00 45 1014.7
20260503172904 21 184 0.0 3.2 0.00 0.00 0.00 45 1014.6
20260503172806 21 185 0.0 3.2 0.00 0.00 0.00 45 1014.5
20260503172703 21 175 0.0 3.2 0.00 0.00 0.00 45 1014.5
20260503172636 21 182 0.0 3.2 0.00 0.00 0.00 45 1014.5
20260503172603 21 241 0.0 1.6 0.00 0.00 0.00 45 1014.6
20260503172524 22 187 0.0 11.3 0.00 0.00 0.00 44 1014.5
20260503172514 21 190 0.0 1.6 0.00 0.00 0.00 45 1014.6
20260503172445 22 190 0.0 0.0 0.00 0.00 0.00 45 1014.7
20260503172429 22 184 0.0 0.0 0.00 0.00 0.00 46 1014.5
20260503172417 22 184 0.0 0.0 0.00 0.00 0.00 46 1014.3
20260503172145 22 194 0.0 0.0 0.00 0.00 0.00 45 1014.6
20260503172129 22 186 0.0 0.0 0.00 0.00 0.00 45 1014.5
20260503171852 22 193 0.0 1.6 0.00 0.00 0.00 45 1014.5
20260503171840 22 185 0.0 1.6 0.00 0.00 0.00 44 1014.5
20260503171830 22 185 0.0 1.6 0.00 0.00 0.00 45 1014.6
20260503171814 22 185 0.0 1.6 0.00 0.00 0.00 44 1014.6
20260503171758 22 192 0.0 1.6 0.00 0.00 0.00 45 1014.6
20260503171743 22 186 0.0 1.6 0.00 0.00 0.00 45 1014.6
20260503171511 22 186 0.0 1.6 0.00 0.00 0.00 45 1014.3
20260503171459 22 183 0.0 1.6 0.00 0.00 0.00 44 1014.6
20260503171220 22 184 0.0 11.3 0.00 0.00 0.00 44 1014.6
20260503170941 22 187 0.0 11.3 0.00 0.00 0.00 44 1014.5
20260503170443 22 187 0.0 11.3 0.00 0.00 0.00 43 1014.7
20260503170427 22 194 0.0 11.3 0.00 0.00 0.00 43 1014.7
20260503170143 22 200 0.0 11.3 0.00 0.00 0.00 42 1014.7
20260503170125 22 209 6.4 11.3 0.00 0.00 0.00 42 1014.6
20260503160214 23 195 1.6 17.7 0.00 0.00 0.00 41 1014.3
20260503160114 23 218 12.9 17.7 0.00 0.00 0.00 41 1014.6
20260503150450 24 121 0.0 12.9 0.00 0.00 0.00 41 1015.0
20260503150350 24 201 1.6 12.9 0.00 0.00 0.00 41 1014.9
20260503150251 24 187 0.0 12.9 0.00 0.00 0.00 41 1015.1
20260503150210 24 207 6.4 12.9 0.00 0.00 0.00 41 1014.9
20260503150150 24 212 1.6 12.9 0.00 0.00 0.00 41 1014.9